Home > Weather > Salem > Past weeks

Flag for USA Weather for the Past 2 Weeks in Salem, Oregon, USA

Now
64 °F

Sunny.


Feels Like: 64 °F
Forecast: 53 / 64 °F
Wind: 12 mph from West

Location: McNary Field

Current Time: May 3, 2016 at 7:24:31 PM

Latest Report: May 3, 2016 at 6:56 PM


Visibility: 10 mi

Pressure: 30.02 "Hg

Humidity: 58%

Dew Point: 49 °F

Location of SalemLocation

Historic Weather in Salem — Graph

°F

Salem Temperature Yesterday

Maximum temperature yesterday: 84 °F (at 2:56 PM)
Minimum temperature yesterday: 50 °F (at 5:56 AM)
Average temperature yesterday: 67 °F

High & Low Weather Summary for the Past Weeks

 TemperatureHumidityPressure
High86 °F (Apr 18, 5:56 PM)93% (Apr 21, 11:56 PM)30.35 "Hg (Apr 21, 11:56 PM)
Low36 °F (Apr 26, 4:56 AM)25% (May 2, 2:56 PM)29.57 "Hg (Apr 22, 4:56 AM)
Average57 °F65%30.02 "Hg
* Reported Apr 18 5:56 PM — May 3 5:56 PM, Salem, Weather by CustomWeather, © 2016

Note: Actual official high and low records may vary slightly from our data, if they occured in-between our weather recording intervals... More about our weather records

Advertising

Salem Weather History for the Previous 24 Hours

Scroll right to see more
 ConditionsComfort  
Time TempWeatherWind HumidityBarometerVisibility
5:56 PM
Tue, May 3
67 °FSunny.10 mph55%30.01 "Hg10 mi
4:56 PM68 °FSunny.9 mph59%30.00 "Hg10 mi
3:56 PM70 °FSunny.12 mph53%30.00 "Hg10 mi
2:56 PM70 °FSunny.No wind49%30.02 "Hg10 mi
1:56 PM71 °FSunny.6 mph49%30.02 "Hg10 mi
12:56 PM70 °FSunny.6 mph47%30.03 "Hg10 mi
11:56 AM66 °FSunny.3 mph56%30.04 "Hg10 mi
10:56 AM63 °FSunny.No wind65%30.05 "Hg10 mi
9:56 AM61 °FSunny.No wind67%30.05 "Hg10 mi
8:56 AM57 °FSunny.No wind74%30.05 "Hg10 mi
7:56 AM55 °FSunny.No wind83%30.04 "Hg10 mi
6:56 AM51 °FClear.6 mph89%30.03 "Hg10 mi
5:56 AM51 °FClear.No wind89%30.02 "Hg10 mi
4:56 AM53 °FClear.No wind83%30.02 "Hg10 mi
3:56 AM55 °FClear.No wind77%30.01 "Hg10 mi
2:56 AM57 °FClear.No wind74%30.01 "Hg10 mi
1:56 AM59 °FClear.3 mph64%30.01 "Hg10 mi
12:56 AM61 °FPassing clouds.No wind60%30.00 "Hg10 mi
11:56 PM
Mon, May 2
63 °FClear.5 mph54%29.98 "Hg10 mi
10:56 PM65 °FPartly cloudy.No wind49%29.98 "Hg10 mi
9:56 PM66 °FClear.6 mph47%29.97 "Hg10 mi
8:56 PM68 °FSunny.7 mph40%29.95 "Hg10 mi
7:56 PM72 °FSunny.6 mph34%29.92 "Hg10 mi
Weather by CustomWeather, © 2016

See weather overviewHow to use our weather pages